Regional Weather Roundup
Issued by NWS

Home | Current Version | Previous Version | Graphics & Text | Print | Product List | Glossary Off
Versions: 1 2 3 4 5 6 7 8 9 10 11 12 13 14 15 16 17 18 19 20 21 22 23 24 25 26 27 28 29 30 31 32 33 34 35 36 37 38 39 40 41 42 43 44 45 46 47 48 49 50

000
ASUS43 KDMX 281507
RWRIA

WEATHER ROUNDUP FOR IOWA
NATIONAL WEATHER SERVICE DES MOINES IA
900 AM CST SAT FEB 28 2015

NOTE: "FAIR" INDICATES FEW OR NO CLOUDS BELOW 12,000 FEET WITH NO
SIGNIFICANT WEATHER AND/OR OBSTRUCTIONS TO VISIBILITY.

* - THESE STATIONS ARE NOT NWS STATIONS...THUS NOT UNDER NWS
QUALITY CONTROL.  THEY ALSO DO NOT REPORT WEATHER SUCH
AS PRECIPITATION OR FOG.

IAZ001>003-012>014-020>022-031>034-043>046-281600-
   NORTHWEST IOWA

CITY           SKY/WX    TMP DP  RH WIND       PRES   REMARKS
CARROLL *      SUNNY      5   0  78 SE7       30.50S WCI  -7
CHEROKEE *     SUNNY      5   0  78 S6        30.46S WCI  -6
DENISON *      SUNNY     10   1  67 S13       30.46S WCI  -5
LE MARS *      SUNNY      9   3  78 S6        30.45S WCI  -1
ORANGE CITY *  SUNNY      9   0  66 S9        30.41S WCI  -5
SHELDON *      SUNNY      5  -2  72 S15       30.42R WCI -13
SIOUX CITY     SUNNY     11   3  70 S12       30.46R WCI  -3
SPENCER        SUNNY      3  -3  76 S13       30.45R WCI -14
STORM LAKE *   SUNNY      1  -4  78 S12       30.45S WCI -15
$$

IAZ055>058-069>071-079>083-090>094-281600-
   SOUTHWEST IOWA

CITY           SKY/WX    TMP DP  RH WIND       PRES   REMARKS
ATLANTIC *     SUNNY     10   3  72 S7        30.50S WCI   0
AUDUBON *      SUNNY      9   3  78 CALM      30.48F
CLARINDA *     SUNNY     14   9  79 S8        30.54R WCI   3
COUNCIL BLFS * SUNNY     12   7  79 S9        30.47R WCI   0
CRESTON *      SUNNY     12   7  79 SE10      30.50S WCI  -1
HARLAN  *      SUNNY      9   5  85 SE3       30.52S
LAMONI         SUNNY     12   4  70 SE8       30.52F WCI   0
RED OAK *      SUNNY     14   9  79 SE10      30.51R WCI   1
SHENANDOAH *   SUNNY     14   9  79 SE9G15    30.52  WCI   2
$$

IAZ047>049-059>061-072>074-084-281600-
   CENTRAL IOWA

CITY           SKY/WX    TMP DP  RH WIND       PRES   REMARKS
AMES           MOSUNNY    0  -5  79 SE7       30.56F WCI -13
ANKENY *       SUNNY      5  -4  66 SE7       30.57F WCI  -7
CHARITON *     MOSUNNY   10   3  72 SE9       30.54F WCI  -2
DES MOINES     MOSUNNY    9  -2  61 SE6       30.56S WCI  -1
GRINNELL*      MOSUNNY    1  -4  78 E7        30.58F WCI -11
KNOXVILLE *    MOSUNNY    5  -4  66 SE8       30.55F WCI  -8
MARSHALLTOWN   MOSUNNY   -2  -7  79 SE7       30.58R WCI -15
PELLA *        SUNNY      7   1  78 SE6       30.60F WCI  -3
PERRY *          N/A      7   3  85 SE8       30.53F WCI  -6
$$

IAZ004>006-015-016-023>025-035-036-281600-
   NORTH CENTRAL IOWA

CITY           SKY/WX    TMP DP  RH WIND       PRES   REMARKS
ALGONA *       SUNNY      1  -2  85 S12       30.50S WCI -15
CLARION *      SUNNY      1  -4  78 SE10      30.53R WCI -14
ESTHERVILLE    SUNNY     -3  -7  82 S10       30.45F WCI -20
FORT DODGE *   MOSUNNY    3   1  92 S3        30.53R
MASON CITY     MOSUNNY   -9 -10  96 CALM      30.54S
FOREST CITY *  SUNNY      0  -6  78 SE6       30.51F WCI -12
IOWA FALLS *     N/A     -2  -6  84 SE7       30.57R WCI -16
$$

IAZ007>011-017>019-026>030-037>042-050>054-066-281600-
   NORTHEAST IOWA

CITY           SKY/WX    TMP DP  RH WIND       PRES   REMARKS
CEDAR RAPIDS   SUNNY     -1  -5  82 SE5       30.62R WCI -11
CHARLES CITY * SUNNY     -4  -8  84 S9        30.58R WCI -20
CLINTON *      SUNNY     -8 -11  84 E6        30.70R WCI -21
DECORAH *      SUNNY      0  -6  78 VRB5      30.58S WCI -10
DUBUQUE        SUNNY     -2  -6  83 S6        30.63R WCI -14
MONTICELLO *   SUNNY    -15 -22  70 CALM      30.66S
OELWEIN *      SUNNY     -4  -9  77 SE9       30.61S WCI -20
WATERLOO       SUNNY     -6 -10  83 CALM      30.61R
$$

IAZ064-065-067-068-078-281600-
   EAST CENTRAL IOWA

CITY           SKY/WX    TMP DP  RH WIND       PRES   REMARKS
DAVENPORT      SUNNY      2  -4  76 SE7       30.67R WCI -11
IOWA CITY      SUNNY      2  -5  72 SE6       30.67S WCI  -9
MT. PLEASANT * MOSUNNY    0  -6  78 E7        30.64R WCI -13
MUSCATINE *    SUNNY     -6  -9  84 CALM      30.69S
QUAD CITIES    SUNNY     -2 -10  69 E3        30.68R
$$

IAZ062-063-075>077-085>089-095>099-281600-
   SOUTHEAST IOWA

CITY           SKY/WX    TMP DP  RH WIND       PRES   REMARKS
BURLINGTON     CLOUDY     9   1  70 SE6       30.65R WCI  -1
FAIRFIELD *    MOSUNNY    5  -4  66 SE8       30.62S WCI  -8
FORT MADISON * CLOUDY    10   1  67 SE7       30.65R WCI   0
KEOKUK *       PTSUNNY   12   3  67 SE8       30.64R WCI   1
OSKALOOSA *      N/A      5  -2  72 SE9       30.61S WCI  -9
CENTERVILLE *  CLOUDY    14   5  67 E8        30.57F WCI   3
OTTUMWA        SUNNY      6  -2  69 E7        30.60S WCI  -6
WASHINGTON *   SUNNY      1   0  92 E6        30.64S WCI -10
$$

ABBREVIATIONS USED IN REMARKS
   TC - TEMPERATURES IN CELSIUS
  WCI - WIND CHILL INDEX
   HX - HEAT INDEX
  VSB - VISIBILITY
$$



USA.gov is the U.S. government's official web portal to all federal, state and local government web resources and services.